Weather reports worldwide

Advertisment
Aguilas, Spain (8432): temperature & dewpoint: 11.08.2018 01:00:00 - 17.08.2018 01:00:00 (CEST)Aguilas, Spain (8432): wind speed & gusts: 11.08.2018 01:00:00 - 17.08.2018 01:00:00 (CEST)Aguilas, Spain (8432): wind direction: 11.08.2018 01:00:00 - 17.08.2018 01:00:00 (CEST)Aguilas, Spain (8432): reduced air pressure: 11.08.2018 01:00:00 - 17.08.2018 01:00:00 (CEST)Aguilas, Spain (8432): visibility: 11.08.2018 01:00:00 - 17.08.2018 01:00:00 (CEST)Aguilas, Spain (8432): sunshine duration: 11.08.2018 01:00:00 - 17.08.2018 01:00:00 (CEST)Aguilas, Spain (8432): precipitation: 11.08.2018 01:00:00 - 17.08.2018 01:00:00 (CEST)
Date & Time tt [°C] td [°C] ff [km/h] ff [kn] fx [km/h] fx [kn] dd ppp [hPa] vv [km] sd [min] rr [mm]
17.08.2018 01:00:00 24,7 17,7 3 2 7 4 ESE 1015,6 20 0 0,0
17.08.2018 00:00:00 25,6 17,2 5 3 10 5 NE 1015,3 20 0 0,0
16.08.2018 23:00:00 25,8 16,6 4 2 9 5 E 1015,1 20 0 0,0
16.08.2018 22:00:00 26,1 15,4 3 1 12 7 S 1014,8 20 0 0,0
16.08.2018 21:00:00 25,4 14,8 4 2 16 8 NNW 1014,1 20 0 0,0
16.08.2018 20:00:00 - - - - - - - - - - -
16.08.2018 19:00:00 26,7 12,0 16 8 45 24 NE 1013,0 20 0 1,8
16.08.2018 18:00:00 25,7 11,1 28 15 55 30 NNW - - 3 0,0
16.08.2018 17:00:00 29,3 19,6 10 5 28 15 SE 1015,2 20 60 0,0
16.08.2018 16:00:00 30,0 18,8 15 8 30 16 SE 1014,7 20 60 0,0
16.08.2018 15:00:00 30,3 18,4 16 9 28 15 SE 1015,2 20 60 0,0
16.08.2018 14:00:00 29,9 18,3 13 7 27 15 SE 1015,3 20 60 -
16.08.2018 13:00:00 29,8 17,6 14 7 34 18 SSE 1016,2 20 60 0,0
16.08.2018 12:00:00 30,1 15,8 18 10 30 16 SE 1016,4 20 60 0,0
16.08.2018 11:00:00 30,2 16,2 17 9 25 14 ESE 1016,2 20 60 0,0
16.08.2018 10:00:00 29,3 17,5 9 5 16 8 SE 1015,6 20 60 0,0
16.08.2018 09:00:00 28,3 18,1 5 3 13 7 E 1015,4 20 60 0,0
16.08.2018 08:00:00 25,1 18,5 2 1 8 4 NNE 1015,5 20 7 -
16.08.2018 07:00:00 24,7 18,8 4 2 7 4 NNE 1015,6 20 0 0,0
16.08.2018 06:00:00 24,9 19,7 3 2 9 5 NNW 1015,4 20 0 0,0
16.08.2018 05:00:00 25,7 19,8 4 2 8 4 NNE 1015,5 20 0 0,0
16.08.2018 04:00:00 25,6 19,7 4 2 7 4 WNW 1016,0 20 0 0,0
16.08.2018 03:00:00 26,3 20,6 4 2 13 7 E 1016,1 20 0 0,0
16.08.2018 02:00:00 26,7 20,8 8 4 16 8 E 1016,3 20 0 -
16.08.2018 01:00:00 26,7 21,0 6 4 16 9 E 1016,2 20 0 0,0
16.08.2018 00:00:00 26,9 21,4 10 5 15 8 E 1016,1 20 0 0,0
15.08.2018 23:00:00 27,0 21,5 9 5 16 8 ESE 1016,0 20 0 0,0
15.08.2018 22:00:00 27,2 21,7 11 6 23 12 ESE 1016,1 20 0 0,0
15.08.2018 21:00:00 28,0 21,1 12 7 22 12 ESE 1016,0 20 0 0,0
15.08.2018 20:00:00 28,1 20,7 7 4 16 9 ESE 1016,1 20 0 -
15.08.2018 19:00:00 28,4 20,9 10 5 22 12 SE 1016,2 20 8 0,0
15.08.2018 18:00:00 28,8 21,1 14 8 29 15 SE 1015,6 20 60 0,0
15.08.2018 17:00:00 30,1 20,3 12 6 31 17 SSE 1015,8 20 60 0,0
15.08.2018 16:00:00 30,1 20,9 15 8 29 15 SE 1016,0 20 59 0,0
15.08.2018 15:00:00 30,1 21,4 13 7 26 14 SE 1016,4 15 58 0,0
15.08.2018 14:00:00 30,0 21,6 13 7 29 15 SSE 1016,9 20 58 -
15.08.2018 13:00:00 30,0 21,9 13 7 27 15 SSE 1017,2 20 60 0,0
15.08.2018 12:00:00 29,7 21,1 19 10 31 17 SE 1017,3 20 60 0,0
15.08.2018 11:00:00 30,9 19,6 14 7 23 12 SE 1017,1 20 60 0,0
15.08.2018 10:00:00 30,1 19,5 9 5 20 11 E 1016,9 20 60 0,0
15.08.2018 09:00:00 28,4 19,9 8 4 13 7 E 1017,3 20 54 0,0
15.08.2018 08:00:00 26,0 20,1 3 2 5 3 NNW 1017,0 20 0 -
15.08.2018 07:00:00 25,9 20,3 3 2 6 3 N 1016,5 20 0 0,0
15.08.2018 06:00:00 25,9 20,7 5 3 7 4 NNE 1016,4 20 0 0,0
15.08.2018 05:00:00 26,1 21,5 4 2 6 3 NNW 1016,4 16 0 0,0
15.08.2018 04:00:00 26,6 21,8 3 1 5 3 NE 1016,5 15 0 0,0
15.08.2018 03:00:00 26,7 21,9 3 1 6 3 NE 1016,8 14 0 0,0
15.08.2018 02:00:00 26,9 21,9 3 2 6 3 E 1017,0 16 0 -
15.08.2018 01:00:00 27,0 22,0 4 2 9 5 ENE 1016,9 16 0 0,0
15.08.2018 00:00:00 27,1 21,8 5 3 13 7 ESE 1016,8 17 0 0,0
14.08.2018 23:00:00 27,4 21,9 6 4 13 7 ESE 1016,6 16 0 0,0
14.08.2018 22:00:00 27,5 21,8 7 4 17 9 SSE 1016,1 16 0 0,0
14.08.2018 21:00:00 27,7 22,0 9 5 17 9 ESE 1015,5 15 6 0,0
14.08.2018 20:00:00 28,5 22,0 8 5 19 10 SSE 1014,2 17 59 -
14.08.2018 19:00:00 29,3 21,8 10 6 21 11 SE 1014,9 15 60 0,0
14.08.2018 18:00:00 30,2 21,8 11 6 22 12 SSE 1014,7 16 43 0,0
14.08.2018 17:00:00 29,1 21,8 12 7 29 16 SE 1015,0 19 35 0,0
14.08.2018 16:00:00 30,3 21,6 16 9 29 16 SE 1015,2 20 60 0,0
14.08.2018 15:00:00 30,9 21,7 16 9 32 17 SE 1015,5 20 60 0,0
14.08.2018 14:00:00 30,1 21,2 19 11 40 22 SE 1015,5 20 60 -
14.08.2018 13:00:00 29,8 21,2 23 12 39 21 SE 1015,8 16 60 0,0
14.08.2018 12:00:00 30,5 20,7 19 10 36 20 SE 1015,7 12 60 0,0
14.08.2018 11:00:00 31,2 19,6 15 8 28 15 ESE 1015,4 13 60 0,0
14.08.2018 10:00:00 30,2 19,3 11 6 23 12 SE 1015,0 18 60 0,0
14.08.2018 09:00:00 27,5 20,6 4 2 9 5 W 1014,6 12 60 0,0
14.08.2018 08:00:00 24,7 18,4 1 1 8 5 S 1014,1 14 8 -
14.08.2018 07:00:00 24,1 19,0 5 3 8 5 N 1013,2 15 0 0,0
14.08.2018 06:00:00 24,4 20,1 3 2 6 3 E 1012,5 10 0 0,0
14.08.2018 05:00:00 24,5 20,0 2 1 5 3 NW 1012,3 10 0 0,0
14.08.2018 04:00:00 25,0 20,7 4 2 12 6 N 1012,4 9 0 0,0
14.08.2018 03:00:00 25,7 21,6 7 4 14 7 ENE 1012,5 8 0 0,0
14.08.2018 02:00:00 25,8 21,9 7 4 14 7 ENE 1012,5 8 0 -
14.08.2018 01:00:00 26,0 21,9 8 5 16 9 ESE 1012,5 10 0 0,0
14.08.2018 00:00:00 26,1 21,5 10 5 14 8 E 1011,9 10 0 0,0
13.08.2018 23:00:00 26,3 21,7 8 5 14 8 E 1011,6 10 0 0,0
13.08.2018 22:00:00 26,4 21,6 4 2 16 8 E 1011,3 10 0 0,0
13.08.2018 21:00:00 26,7 21,4 11 6 23 12 SE 1011,1 10 21 0,0
13.08.2018 20:00:00 28,0 21,3 14 7 23 12 SE 1010,8 11 60 -
13.08.2018 19:00:00 28,9 21,1 10 6 19 10 SE 1011,1 13 60 0,0
13.08.2018 18:00:00 29,2 20,7 8 4 19 10 SE 1011,3 16 60 0,0
13.08.2018 17:00:00 29,5 21,2 14 8 24 13 SSW 1011,6 13 60 0,0
13.08.2018 16:00:00 29,6 21,3 13 7 26 14 SSW 1012,3 14 60 0,0
13.08.2018 15:00:00 30,0 22,2 13 7 26 14 SSW 1012,5 20 60 0,0
13.08.2018 14:00:00 30,2 21,8 12 6 22 12 SSW 1013,3 18 26 -
13.08.2018 13:00:00 30,1 22,0 13 7 20 11 SSW 1013,6 19 55 0,0
13.08.2018 12:00:00 29,5 21,7 11 6 20 11 S 1014,2 15 60 0,0
13.08.2018 11:00:00 29,4 21,4 10 5 18 10 S 1014,2 19 60 0,0
13.08.2018 10:00:00 29,1 21,3 6 3 14 8 SW 1013,9 18 40 0,0
13.08.2018 09:00:00 27,9 21,9 3 2 8 4 NW 1014,1 16 48 0,0
13.08.2018 08:00:00 26,5 22,1 3 2 7 4 ESE 1014,0 12 0 -
13.08.2018 07:00:00 26,6 22,3 4 2 8 5 E 1013,7 12 0 0,0
13.08.2018 06:00:00 26,7 22,3 3 2 9 5 ESE 1013,5 13 0 0,0
13.08.2018 05:00:00 26,9 22,5 7 4 12 7 ESE 1013,6 15 0 0,0
13.08.2018 04:00:00 26,8 22,4 4 2 9 5 SE 1013,6 14 0 0,0
13.08.2018 03:00:00 26,9 21,9 3 1 8 4 ESE 1013,9 18 0 0,0
13.08.2018 02:00:00 27,2 21,7 4 2 13 7 E 1013,7 18 0 -
13.08.2018 01:00:00 27,0 22,0 8 4 17 9 N 1014,4 18 0 0,0
13.08.2018 00:00:00 27,1 22,3 5 3 13 7 S 1014,1 16 0 0,0
12.08.2018 23:00:00 27,1 21,6 4 2 16 8 E 1014,5 18 0 0,0
12.08.2018 22:00:00 27,3 22,3 9 5 18 10 ESE 1014,2 20 0 0,0
12.08.2018 21:00:00 27,4 22,3 11 6 17 9 ESE 1013,8 20 0 0,0
12.08.2018 20:00:00 28,2 22,0 8 5 17 9 SE 1013,4 20 51 -
12.08.2018 19:00:00 29,0 22,0 9 5 21 12 SSE 1013,1 20 60 0,0
12.08.2018 18:00:00 29,4 21,4 12 7 23 12 SE 1013,8 20 60 0,0
12.08.2018 17:00:00 29,9 21,0 13 7 23 13 SSE 1014,4 20 60 0,0
12.08.2018 16:00:00 30,1 20,9 15 8 27 15 SE 1015,2 20 60 0,0
12.08.2018 15:00:00 30,1 20,9 16 9 31 17 SE 1016,0 20 60 0,0
12.08.2018 14:00:00 30,0 21,1 19 11 31 17 SE 1016,6 20 60 -
12.08.2018 13:00:00 29,9 20,5 15 8 26 14 SE 1016,8 20 60 0,0
12.08.2018 12:00:00 30,8 19,2 14 8 28 15 SE 1016,8 20 60 0,0
12.08.2018 11:00:00 30,5 18,5 5 3 15 8 SSW 1016,6 20 60 0,0
12.08.2018 10:00:00 29,4 17,2 4 2 11 6 SSW 1016,9 20 60 0,0
12.08.2018 09:00:00 27,2 17,7 3 2 6 3 NW 1017,1 20 60 0,0
12.08.2018 08:00:00 24,4 17,4 3 1 10 5 S 1017,0 20 7 -
12.08.2018 07:00:00 24,1 17,1 1 1 6 4 N 1016,6 20 0 0,0
12.08.2018 06:00:00 24,5 17,7 1 1 6 3 N 1016,8 20 0 0,0
12.08.2018 05:00:00 24,6 17,9 4 2 6 3 NNW 1016,9 20 0 0,0
12.08.2018 04:00:00 25,0 17,9 5 3 9 5 NNW 1017,4 20 0 0,0
12.08.2018 03:00:00 25,5 17,7 4 2 8 4 ENE 1017,9 20 0 0,0
12.08.2018 02:00:00 25,9 17,8 4 2 9 5 NNW 1018,6 20 0 -
12.08.2018 01:00:00 26,7 18,8 4 2 13 7 E 1019,0 20 0 0,0
12.08.2018 00:00:00 27,2 19,1 9 5 15 8 E 1019,0 20 0 0,0
11.08.2018 23:00:00 27,9 19,1 6 4 18 10 E 1018,9 20 0 0,0
11.08.2018 22:00:00 28,0 21,1 8 5 17 9 E 1018,7 20 0 0,0
11.08.2018 21:00:00 28,1 21,4 10 6 24 13 E 1018,2 20 0 0,0
11.08.2018 20:00:00 29,0 21,3 14 8 30 16 ESE 1018,4 20 39 -
11.08.2018 19:00:00 29,5 21,2 16 9 32 17 E 1017,8 20 53 0,0
11.08.2018 18:00:00 30,2 21,0 18 10 34 19 ESE 1018,2 20 60 0,0
11.08.2018 17:00:00 29,9 20,7 22 12 37 20 SE 1018,7 18 60 0,0
11.08.2018 16:00:00 30,5 20,7 21 11 35 19 SE 1018,9 20 60 0,0
11.08.2018 15:00:00 30,3 20,5 23 12 36 20 SE 1019,5 20 60 0,0
11.08.2018 14:00:00 31,0 20,0 22 12 37 20 SE 1020,2 20 60 -
11.08.2018 13:00:00 30,7 20,3 22 12 35 19 SE 1020,7 18 59 0,0
11.08.2018 12:00:00 30,9 20,8 18 10 34 18 SE 1021,0 20 56 0,0
11.08.2018 11:00:00 30,8 19,5 14 7 35 19 E 1021,1 20 34 0,0
11.08.2018 10:00:00 29,3 19,1 14 7 28 15 ENE 1021,1 20 48 0,0
11.08.2018 09:00:00 28,6 19,5 8 4 18 10 ENE 1020,8 20 60 0,0
11.08.2018 08:00:00 26,9 19,8 4 2 12 6 NNE 1020,5 20 3 -
11.08.2018 07:00:00 26,7 19,8 6 4 16 8 ENE 1020,5 20 0 0,0
11.08.2018 06:00:00 26,9 19,5 8 4 22 12 ENE 1020,3 17 0 0,0
11.08.2018 05:00:00 27,1 18,9 9 5 17 9 E 1020,1 20 0 0,0
11.08.2018 04:00:00 26,9 19,0 3 2 10 5 NE 1020,1 20 0 0,0
11.08.2018 03:00:00 27,2 19,3 4 2 10 5 ENE 1020,1 20 0 0,0
11.08.2018 02:00:00 27,5 19,3 3 2 11 6 N 1020,8 20 0 -
11.08.2018 01:00:00 27,8 20,1 6 3 17 9 ENE 1021,0 20 0 0,0

tt = temperature
td = dewpoint
ff = wind speed
fx = gusts
dd = wind direction
ppp = reduced air pressure
vv = visibility
sd = sunshine duration
rr = precipitation

Next stations